Pope Field Airport, NC

8:08 AM EDT on June 26, 2017 (GMT -0400)
Pope Field Airport

Weather History for KPOB - May, 2013

Change the Weather History Date:

Monday, May 27, 2013

  Actual Average Record
Temperature  
Mean Temperature 64 °F -  
Max Temperature 81 °F 82 °F 95 °F (2000)
Min Temperature 48 °F 62 °F 48 °F (2013)
Growing Degree Days 14 (Base 50)    
Moisture  
Dew Point 50 °F    
Average Humidity 59    
Maximum Humidity 96    
Minimum Humidity 29    
Precipitation  
Precipitation 0.00 in - - ()
Sea Level Pressure  
Sea Level Pressure 30.24 in    
Wind  
Wind Speed 3 mph (South)    
Max Wind Speed 10 mph    
Max Gust Speed -    
Visibility 10 miles    
Events      
Averages and records for this station are not official NWS values.
T = Trace of Precipitation, MM = Missing Value Source: NWS Daily Summary

Daily Weather History Graph

Daily Weather History Graph

Search for Another Location

Airport or City:

Trip Planner

Search our weather history database for the weather conditions in past years. The results will help you decide how hot, cold, wet, or windy it might be!

Date:

Astronomy

May. 27, 2013 Rise Set
Actual Time 6:04 AM EDT 8:22 PM EDT
Civil Twilight 5:35 AM EDT 8:51 PM EDT
Nautical Twilight 5:00 AM EDT 9:26 PM EDT
Astronomical Twilight 4:21 AM EDT 10:05 PM EDT
Moon 11:02 PM EDT (5/27) 8:38 AM EDT (5/27)
Length of Visible Light 15h 15m
Length of Day
14h 17m
Waning Gibbous, 91% of the Moon is Illuminated
May 27
Waning Gibbous
May 31
Last Quarter
Jun 8
New
Jun 16
First Quarter
Jun 23
Full

Hourly Weather History & Observations

Time (EDT) Temp. Dew Point Humidity Pressure Visibility Wind Dir Wind Speed Gust Speed Precip Events Conditions
12:58 AM 53.1 °F 51.3 °F 94% 30.24 in 10.0 mi Calm Calm - N/A   Clear
1:58 AM 51.6 °F 50.0 °F 94% 30.25 in 10.0 mi NNW 1.2 mph - N/A   Clear
2:58 AM 50.9 °F 48.7 °F 92% 30.25 in 10.0 mi Calm Calm - N/A   Clear
3:58 AM 50.0 °F 48.2 °F 94% 30.24 in 10.0 mi Calm Calm - N/A   Clear
4:58 AM 49.1 °F 47.5 °F 94% 30.25 in 10.0 mi Calm Calm - N/A   Clear
5:58 AM 48.2 °F 47.1 °F 96% 30.26 in 10.0 mi North - - N/A   Clear
6:58 AM 50.2 °F 48.9 °F 95% 30.28 in 10.0 mi Calm Calm - N/A   Clear
7:58 AM 59.2 °F 53.4 °F 81% 30.29 in 10.0 mi Variable 3.5 mph - N/A   Clear
8:58 AM 68.7 °F 52.5 °F 56% 30.29 in 10.0 mi South 8.1 mph - N/A   Clear
9:58 AM 72.3 °F 51.6 °F 48% 30.29 in 10.0 mi South 6.9 mph - N/A   Clear
10:58 AM 75.2 °F 47.1 °F 37% 30.28 in 10.0 mi South 8.1 mph - N/A   Clear
11:58 AM 76.5 °F 46.4 °F 34% 30.28 in 10.0 mi SE 6.9 mph - N/A   Clear
12:58 PM 77.7 °F 44.1 °F 30% 30.27 in 10.0 mi Variable 5.8 mph - N/A   Clear
1:58 PM 78.6 °F 46.8 °F 32% 30.25 in 10.0 mi Variable 5.8 mph - N/A   Clear
2:58 PM 80.1 °F 45.7 °F 30% 30.24 in 10.0 mi South 4.6 mph - N/A   Clear
3:58 PM 80.4 °F 45.5 °F 29% 30.22 in 10.0 mi Variable 2.3 mph - N/A   Clear
4:58 PM 81.5 °F 47.8 °F 31% 30.20 in 10.0 mi South 10.4 mph - N/A   Clear
5:58 PM 81.0 °F 48.7 °F 32% 30.18 in 10.0 mi South 10.4 mph - N/A   Clear
6:58 PM 80.2 °F 52.0 °F 37% 30.19 in 10.0 mi SSW 5.8 mph - N/A   Clear
7:58 PM 78.8 °F 52.5 °F 40% 30.20 in 10.0 mi SSW 5.8 mph - N/A   Clear
8:58 PM 73.0 °F 54.3 °F 52% 30.20 in 10.0 mi South 4.6 mph - N/A   Clear
9:58 PM 74.8 °F 55.9 °F 52% 30.20 in 10.0 mi South 9.2 mph - N/A   Clear
10:58 PM 72.0 °F 60.1 °F 66% 30.22 in 10.0 mi SSW 10.4 mph - N/A   Clear
11:58 PM 70.2 °F 60.4 °F 71% 30.23 in 10.0 mi South 8.1 mph - N/A   Clear